Location: Capel Gartheli
(52.1833°N, 4.0667°W)
Time: 20:13:25
(UTC+00:00)

H-2A R/B - Pass Details

Date: 18 February 2020
Orbit: 529 x 653 km, 98.3° (Epoch: 07 April)

Event Time Altitude Azimuth Distance (km) Brightness Sun altitude
Rises 05:23:17 0° 13° (NNE) 2,889 6.2 -19.5°
Reaches altitude 10° 05:25:27 10° 12° (NNE) 1,998 5.4 -19.2°
Maximum altitude 05:29:48 73° 289° (WNW) 668 2.5 -18.6°
Enters shadow 05:33:57 12° 205° (SSW) 1,923 4.8 -17.9°
